World > North America > United States > New York > Philadelphia

Hourly Philadelphia, NY Regional Weather

Feedback E-mail the Weather

Quick WX

Philadelphia, NY Weather Maps

°F °C°F °C
Philadelphia Weather Map
UTC Time: 8/17/2022, 19:43
Your Time:

Philadelphia, NY Regional Weather

Expires:202208171900;;209435
ASUS41 KBTV 171830
RWRBTV
VERMONT REGIONAL WEATHER ROUNDUP
NATIONAL WEATHER SERVICE BURLINGTON VT
200 PM EDT WED AUG 17 2022

NOTE: "FAIR" INDICATES FEW OR NO CLOUDS BELOW 12,000 FEET WITH NO 
SIGNIFICANT WEATHER AND/OR OBSTRUCTIONS TO VISIBILITY.

* THESE REPORTS ARE NOT UNDER NWS QUALITY CONTROL AND/OR DO NOT
  REPORT WEATHER SUCH AS PRECIPITATION AND FOG.


NYZ007-026>031-035-052-083-087-171900-
_____NORTHERN NEW YORK_
  
CITY           SKY/WX    TMP DP  RH WIND       PRES   REMARKS
PLATTSBURGH    PTSUNNY   80  60  50 NE12      30.01F                  
6HR MIN TEMP:  65; 6HR MAX TEMP:  80;                                

SARANAC LAKE   PTSUNNY   76  55  48 NE9G21    30.06F                  
6HR MIN TEMP:  60; 6HR MAX TEMP:  77;                                

MASSENA        PTSUNNY   78  61  55 NE9       30.06F                  
6HR MIN TEMP:  65; 6HR MAX TEMP:  79;                                

OGDENSBURG*    FAIR      77  61  57 N8G15     30.02F                  
POTSDAM*       PTSUNNY   79  57  47 E12G18    30.04F                  
WATERTOWN      PTSUNNY   83  56  39 NE10G16   30.02F                  
6HR MIN TEMP:  64; 6HR MAX TEMP:  84;                                

FT DRUM        PTSUNNY   77  58  51 NE7       30.01F                  
6HR MIN TEMP:  64; 6HR MAX TEMP:  82; 6HR PCP: TRACE;                

ALBANY         CLOUDY    76  61  59 CALM      30.01F                  
6HR MIN TEMP:  66; 6HR MAX TEMP:  76;                                

GLENS FALLS    PTSUNNY   79  55  43 N9        29.99F                  
6HR MIN TEMP:  63; 6HR MAX TEMP:  79;                                


$$

SKY/WX - Weather  TMP - Temperature  DP - Dew Point  RH - Humidity
WIND - Wind Direction/Speed PRES - Barometric Pressure VSB - Visibility
WCI - Wind Chill Index E13G22 Wind - East Wind 13 mph/Gusts of 22 mph

Trending Headlines

Philadelphia Radar Loop



Philadelphia Quick Facts


National Two Day Weather Forecast


E-mail the Philadelphia Weather Forecast

Voice your opinion or tell us about page issues...